Wind_Speed
52 51 50 48 47 48 50 50 49 49 48 47 47 47 47 47 46 47 47 47 47 46 46 47 47 47 47 47 46 46 46 46 46 45 44 43 42 40
50 50 50 49 50 50 50 51 51 51 49 48 49 48 47 48 48 48 48 49 49 49 48 48 47 47 47 47 47 46 46 46 46 45 44 42 41 39
48 50 51 51 51 51 52 53 52 52 52 51 50 49 49 50 50 50 50 50 51 51 50 49 48 48 48 48 48 47 47 46 46 45 43 42 41 38
48 49 51 51 52 53 55 55 54 53 53 52 52 52 51 51 51 52 51 52 53 52 52 51 50 50 49 49 48 47 47 46 45 44 42 41 39 37
48 50 51 52 53 54 55 55 55 54 55 54 53 53 52 52 53 53 53 54 54 54 53 52 51 51 49 48 47 47 47 45 44 43 41 40 38 36
48 51 52 53 54 55 56 56 56 56 57 56 55 54 55 55 55 55 55 55 55 54 54 53 52 51 50 48 48 47 46 44 42 41 40 39 38 35
50 52 53 53 55 56 57 58 58 59 59 59 58 57 57 58 58 58 57 55 55 55 54 54 52 50 49 48 47 46 44 42 41 40 39 38 36 34
51 53 54 56 58 58 60 60 61 60 60 60 60 60 59 59 60 59 57 56 55 55 54 53 52 50 49 48 46 44 42 41 40 39 38 37 35 33
54 56 57 59 61 61 62 62 63 63 63 62 62 61 60 60 60 60 59 59 57 56 55 54 53 51 49 47 45 43 42 40 40 39 37 35 33 31
57 59 61 62 63 64 64 65 65 65 66 65 64 63 63 64 63 61 61 61 60 58 56 54 53 51 50 48 45 43 41 40 39 37 35 34 32 30
62 64 65 66 67 68 68 69 68 69 69 68 67 67 67 66 64 63 62 61 59 58 57 54 52 50 48 45 44 42 40 39 38 36 34 32 31 29
64 65 66 67 68 69 70 70 69 69 69 69 69 68 67 66 65 63 61 60 58 56 55 53 51 48 46 44 42 41 40 38 37 35 33 31 30 28
66 67 68 69 69 69 69 69 69 70 71 71 70 68 66 65 64 62 60 58 56 54 52 50 48 47 45 44 42 41 39 37 35 34 32 31 30 28
67 68 68 68 69 68 68 68 69 70 69 69 68 66 64 62 61 60 59 58 57 55 52 50 48 46 44 42 40 39 38 36 34 33 32 31 29 28
65 65 65 65 65 65 65 66 67 67 67 66 64 62 60 59 58 58 58 56 54 52 50 48 46 44 42 40 39 38 37 35 33 32 31 30 29 29
64 63 62 62 61 61 61 63 64 64 63 62 61 60 59 58 56 55 54 52 50 48 47 45 44 43 41 39 38 37 35 33 32 31 31 30 29 29
62 61 59 58 58 58 58 59 59 59 58 58 57 57 56 54 53 51 50 49 47 46 45 44 43 42 41 40 39 37 35 33 32 31 31 30 29 29
60 58 57 56 55 55 55 54 54 53 53 53 52 51 51 50 48 47 46 45 45 45 44 43 42 41 39 38 37 36 34 33 32 31 31 30 30 29
57 55 54 53 52 51 50 49 48 48 48 47 47 46 46 45 44 43 42 42 42 42 42 41 40 39 37 37 36 35 33 32 32 32 32 31 30 30
53 52 51 50 49 47 45 43 42 42 42 42 42 42 41 41 41 40 39 39 38 38 38 37 37 37 37 36 35 34 33 33 32 32 32 31 30 29
47 46 45 43 41 40 38 37 37 37 38 38 38 38 38 38 38 37 37 37 37 37 37 36 36 36 36 35 34 34 34 33 32 32 32 31 30 30
42 40 38 36 35 34 33 33 33 34 34 34 33 35 36 36 35 35 35 35 36 36 36 35 35 35 34 34 34 34 33 32 32 32 32 31 30 30
36 34 32 31 30 30 30 29 29 29 29 30 31 32 33 33 33 34 34 34 34 34 34 34 34 35 34 34 33 33 32 32 32 32 32 31 31 30
Wind_Direction
259 260 261 261 263 264 265 266 267 268 270 270 271 273 274 274 274 275 276 277 279 280 280 281 281 282 284 287 289 291 294 296 297 298 299 301 302 303
258 259 261 262 263 265 266 267 268 269 271 272 272 272 273 273 274 275 276 277 278 279 279 280 281 283 285 286 289 291 293 294 294 295 297 298 300 301
259 261 262 262 263 265 266 267 268 270 271 272 271 271 272 274 274 274 276 276 277 277 278 280 281 282 284 285 288 289 291 292 293 294 295 297 299 299
259 261 263 264 265 267 268 269 270 270 270 271 271 272 273 274 273 274 275 275 277 277 277 279 279 281 282 285 286 288 289 291 292 293 295 296 297 297
261 263 264 266 266 267 268 269 270 269 270 271 272 272 272 272 273 273 274 275 276 276 276 277 278 280 281 282 284 286 288 290 290 291 293 294 294 295
264 265 267 267 268 269 269 270 270 270 271 271 271 271 271 271 272 272 273 274 274 275 275 276 277 277 279 280 282 284 286 287 288 290 291 292 293 293
266 267 268 269 270 269 270 270 270 271 271 271 271 271 272 272 272 271 271 271 272 273 274 274 274 275 276 278 280 282 283 285 286 287 288 290 291 290
268 268 269 269 269 269 270 270 270 270 270 270 270 271 271 271 271 271 270 270 271 272 272 272 272 273 274 276 277 279 280 282 284 285 286 287 288 287
270 271 271 270 270 270 270 270 269 269 270 269 268 269 268 268 269 269 268 269 269 269 270 270 270 271 272 274 276 277 278 280 282 283 283 284 284 284
272 273 272 272 272 270 270 270 268 268 268 268 268 268 267 267 268 267 267 267 267 267 267 268 269 270 271 272 274 275 275 277 279 281 281 281 281 280
275 275 274 273 271 269 268 268 268 267 267 267 267 267 267 267 266 266 266 266 267 267 267 267 268 269 269 270 271 271 272 275 277 278 278 277 276 275
277 276 274 272 271 270 270 268 267 267 267 267 267 268 267 266 264 264 265 265 264 264 265 265 265 265 266 266 267 268 271 273 274 274 273 273 272 271
278 276 275 273 272 271 270 268 267 266 266 267 267 267 266 265 264 264 263 263 262 262 262 262 262 262 263 263 264 266 268 269 270 270 269 269 268 267
279 278 276 275 273 271 270 268 267 266 266 266 265 264 263 263 262 261 260 260 260 260 259 260 261 260 260 260 261 263 264 266 267 266 265 264 264 264
282 280 278 276 273 271 269 267 266 265 265 264 263 262 261 260 259 258 257 257 257 256 256 257 257 257 257 257 258 260 261 262 262 262 261 260 260 260
283 281 279 277 274 271 268 267 265 264 263 261 260 258 257 257 256 256 255 255 253 253 254 253 254 253 253 254 255 256 258 259 258 257 257 257 257 257
283 281 280 277 275 271 269 267 265 263 261 259 257 256 255 255 255 254 252 251 249 250 250 250 250 249 251 252 253 254 255 254 254 254 254 254 253 253
285 282 280 278 276 273 270 268 265 262 259 257 255 254 252 252 252 249 248 248 246 246 247 248 247 247 248 249 250 250 250 251 251 251 251 251 251 250
286 284 282 280 277 275 272 268 264 261 258 255 252 250 248 247 246 245 245 244 244 244 245 245 244 243 244 246 247 246 246 248 248 249 249 249 248 248
287 285 283 280 277 274 271 266 262 258 254 252 250 247 245 243 241 240 241 240 240 240 241 241 240 240 241 242 242 243 244 245 246 247 247 247 246 246
289 287 283 280 276 272 268 264 259 255 253 250 247 243 240 238 237 236 237 237 237 237 237 237 237 238 239 240 240 241 243 243 243 245 246 245 245 245
291 288 283 279 274 269 265 261 257 254 251 247 244 239 236 235 234 233 233 234 235 234 234 235 236 237 237 238 239 239 240 240 241 243 244 243 244 244
293 290 284 278 273 268 264 258 253 249 246 243 240 235 233 230 229 228 228 230 232 232 233 233 233 234 234 235 236 237 237 239 240 242 242 241 242 243
Height
5716 5717 5718 5719 5720 5721 5721 5722 5722 5723 5725 5726 5726 5725 5724 5724 5724 5723 5723 5722 5721 5721 5720 5719 5719 5718 5717 5716 5714 5713 5711 5710 5707 5705 5703 5700 5698 5695
5705 5706 5707 5708 5709 5709 5710 5710 5710 5710 5711 5713 5713 5713 5712 5712 5711 5711 5710 5710 5710 5709 5709 5708 5707 5707 5706 5705 5704 5702 5701 5699 5697 5695 5693 5691 5688 5686
5694 5695 5696 5697 5697 5698 5698 5698 5697 5697 5697 5699 5699 5699 5699 5699 5698 5698 5698 5698 5697 5697 5697 5697 5696 5695 5695 5694 5693 5692 5690 5689 5687 5685 5683 5681 5679 5677
5683 5683 5684 5684 5685 5685 5685 5684 5684 5684 5684 5685 5685 5685 5685 5685 5685 5685 5685 5685 5684 5684 5684 5684 5684 5683 5683 5682 5682 5680 5679 5678 5677 5675 5673 5672 5669 5667
5671 5671 5671 5671 5671 5671 5671 5671 5670 5670 5670 5670 5671 5671 5671 5671 5671 5671 5671 5671 5671 5671 5671 5671 5671 5671 5671 5670 5670 5669 5668 5667 5666 5665 5663 5662 5660 5658
5658 5658 5658 5658 5657 5657 5657 5656 5656 5655 5655 5655 5656 5656 5657 5657 5657 5657 5657 5657 5657 5657 5657 5658 5658 5658 5659 5659 5658 5658 5657 5656 5655 5654 5653 5652 5650 5649
5645 5644 5644 5643 5642 5642 5641 5641 5640 5640 5640 5640 5640 5640 5641 5641 5642 5642 5642 5642 5642 5643 5643 5644 5645 5646 5646 5646 5646 5646 5645 5645 5644 5643 5642 5641 5640 5639
5631 5630 5629 5628 5626 5625 5624 5624 5624 5623 5623 5623 5623 5624 5625 5625 5625 5625 5625 5626 5628 5629 5629 5630 5631 5632 5633 5633 5633 5634 5634 5633 5633 5633 5632 5631 5630 5630
5615 5614 5612 5610 5608 5607 5606 5606 5605 5605 5605 5605 5605 5606 5606 5607 5607 5608 5609 5610 5612 5613 5614 5616 5617 5618 5619 5620 5621 5621 5622 5622 5622 5622 5621 5621 5620 5620
5598 5596 5594 5591 5589 5587 5586 5586 5586 5585 5585 5585 5586 5587 5587 5588 5589 5590 5591 5593 5595 5597 5599 5601 5602 5604 5605 5607 5608 5609 5610 5610 5611 5611 5611 5610 5611 5611
5579 5576 5572 5570 5568 5566 5565 5566 5566 5565 5564 5564 5565 5566 5567 5568 5570 5572 5573 5576 5578 5581 5583 5585 5587 5589 5591 5593 5595 5597 5598 5599 5599 5600 5600 5600 5601 5601
5558 5554 5550 5547 5545 5543 5542 5543 5543 5544 5543 5543 5544 5545 5546 5548 5550 5553 5555 5558 5561 5564 5567 5570 5572 5575 5578 5580 5582 5584 5586 5587 5588 5589 5589 5590 5591 5592
5535 5532 5527 5524 5522 5520 5519 5518 5519 5520 5520 5521 5522 5524 5526 5528 5530 5534 5537 5540 5544 5548 5551 5554 5558 5561 5564 5567 5570 5572 5574 5575 5577 5578 5579 5580 5582 5583
5511 5507 5504 5500 5498 5496 5495 5494 5494 5495 5496 5498 5500 5503 5505 5508 5511 5514 5518 5522 5526 5531 5535 5539 5543 5547 5550 5554 5557 5559 5562 5563 5565 5567 5569 5570 5572 5573
5486 5482 5479 5476 5473 5472 5471 5470 5470 5471 5473 5476 5478 5482 5485 5489 5492 5496 5500 5505 5510 5514 5519 5524 5529 5533 5537 5541 5544 5547 5550 5552 5554 5556 5558 5560 5562 5564
5462 5459 5455 5452 5450 5449 5448 5448 5447 5448 5450 5453 5458 5462 5465 5470 5474 5479 5483 5488 5494 5499 5504 5509 5514 5519 5524 5528 5531 5534 5538 5541 5543 5545 5548 5550 5552 5554
5441 5437 5433 5430 5429 5427 5426 5426 5426 5427 5430 5434 5437 5442 5447 5451 5457 5462 5467 5473 5479 5485 5490 5495 5501 5506 5511 5515 5519 5522 5526 5529 5532 5535 5537 5540 5542 5544
5419 5416 5413 5411 5408 5407 5406 5406 5407 5408 5411 5415 5419 5424 5429 5435 5440 5446 5452 5458 5465 5471 5476 5482 5487 5493 5498 5503 5507 5511 5515 5518 5521 5524 5527 5530 5532 5535
5400 5397 5394 5391 5389 5387 5387 5387 5389 5391 5393 5397 5402 5407 5413 5419 5425 5431 5438 5444 5451 5457 5463 5469 5475 5480 5486 5491 5495 5499 5504 5507 5510 5514 5517 5519 5522 5525
5381 5378 5375 5373 5371 5370 5369 5370 5372 5374 5378 5382 5387 5393 5399 5405 5412 5419 5425 5432 5438 5445 5451 5457 5463 5468 5474 5479 5484 5488 5492 5496 5500 5503 5506 5509 5512 5515
5365 5361 5358 5356 5354 5354 5354 5355 5357 5360 5364 5369 5374 5380 5386 5393 5400 5407 5414 5420 5427 5433 5439 5445 5451 5456 5462 5468 5473 5477 5481 5485 5489 5493 5496 5499 5502 5505
5351 5347 5344 5342 5341 5341 5342 5343 5346 5349 5353 5358 5363 5369 5375 5382 5389 5396 5403 5409 5416 5422 5428 5434 5440 5446 5452 5457 5462 5466 5471 5475 5479 5482 5486 5489 5492 5496
5338 5335 5332 5331 5330 5330 5331 5333 5336 5339 5343 5348 5354 5359 5366 5372 5379 5386 5393 5399 5406 5412 5418 5424 5430 5436 5441 5446 5451 5456 5460 5465 5468 5472 5476 5479 5483 5486